Regional Weather Roundup
Issued by NWS

Home | Current Version | Previous Version | Text Only | Print | Product List | Glossary Off
Versions: 1 2 3 4 5 6 7 8 9 10 11 12 13 14 15 16 17 18 19 20 21 22 23 24 25 26 27 28 29 30 31 32 33 34 35 36 37 38 39 40 41 42 43 44 45 46 47 48 49 50

000
ASUS45 KTFX 050219
RWRMT
MONTANA HOURLY WEATHER ROUNDUP
NATIONAL WEATHER SERVICE GREAT FALLS MT
719 PM MST WED MAR 4 2015

NOTE: "FAIR" INDICATES FEW OR NO CLOUDS BELOW 12000 FEET WITH NO
SIGNIFICANT WEATHER AND/OR OBSTRUCTIONS TO VISIBILITY.

* THESE STATIONS ARE NOT UNDER NWS QUALITY CONTROL. THEY DO NOT
   REPORT WEATHER SUCH AS PRECIPITATION OR FOG.

MTZ001>007-043-050300-
WEST OF THE DIVIDE
CITY           SKY/WX    TMP DP  RH WIND       PRES   REMARKS
KALISPELL      MOCLDY    32  14  47 SE6       30.16S WCI  26
MISSOULA       PTCLDY    34  14  44 CALM      30.19R
BUTTE          CLEAR     27  10  49 N3        30.08R
MULLAN PASS    PTCLDY    21   7  55 NW8       30.12S WCI  11
* ANACONDA     CLEAR     25   9  50 N/A        N/A
* ESSEX        N/A       25  11  55 W1         N/A
* EUREKA APT   PTCLDY    34   9  35 E8        30.18R WCI  27
* HAMILTON APT PTCLDY    32  16  52 SE6       30.19R WCI  26
* LIBBY APT    MOCLDY    32  12  43 CALM      30.19R
* LINCOLN      N/A       31   7  36 SW7G19     N/A   WCI  24
* LOOKOUT PASS N/A       30   7  38 E4G12      N/A
* POLSON       N/A       29  13  51 SE1        N/A
* RONAN APT    MOCLDY    34  19  54 N/A        N/A
* SEELEY LAKE  N/A       30   2  30 NW3G13     N/A
* THOMP F APT  PTCLDY    22   3  44 S6G14      N/A   WCI  14
* YAAK HILL    N/A       39   9  29 N1         N/A
$$

MTZ008-052>055-050300-
SOUTHWEST MONTANA
CITY           SKY/WX    TMP DP  RH WIND       PRES   REMARKS
BOZEMAN        PTCLDY    28   3  34 VRB5      30.10R WCI  22
DILLON         CLEAR     28   9  45 S14       30.09R WCI  17
* W YELLOWSTON CLEAR     19   4  52 SW5G18     N/A   WCI  12
* THREE FORKS  PTCLDY    28   7  41 N/A        N/A
* BOULDER HILL N/A       28   0  30 S6G11      N/A   WCI  21
* MONIDA PASS  N/A       20   4  50 SE10G15    N/A   WCI   9
* RAYNOLDS PAS N/A       16   2  54 S4         N/A
* WHITEHALL    N/A       34   2  25 W7G19      N/A   WCI  28
* WISE RIVER   N/A       30   2  30 W10G17     N/A   WCI  21
$$

MTZ009>010-012-014-046-048-049-054-050300-
EAST SLOPES AND CENTRAL MONTANA
CITY           SKY/WX    TMP DP  RH WIND       PRES   REMARKS
CUT BANK       PTCLDY    28  10  47 W22       29.95S WCI  14
GREAT FALLS    CLEAR     30  10  43 SW14      29.99R WCI  19
HELENA         CLEAR     34   9  35 SW6       30.08R WCI  29
MALMSTROM AFB  CLEAR     30  14  51 SW15      30.01R WCI  19
* CONRAD       CLEAR     34   9  35 CALM       N/A
* DEARBORN     N/A       35   9  34 S6G12      N/A   WCI  30
* EAST GLACIER N/A       27   7  42 W20G27     N/A   WCI  13
* MONARCH      N/A       24   1  37 SW17       N/A   WCI  11
* PENDROY      N/A       27  12  53 W13        N/A   WCI  16
* ROGERS PASS  N/A       25   7  46 SE19G29    N/A   WCI  11
* SWEET GRASS  N/A       29  14  53 W14        N/A   WCI  18
* WHITE SULPH  N/A       25   7  46 S9G17      N/A   WCI  16
$$

MTZ011-013-016-021-035-040-045-047-050-051-050300-
NORTH CENTRAL MONTANA
CITY           SKY/WX    TMP DP  RH WIND       PRES   REMARKS
HAVRE          CLEAR     23   9  55 SE5       30.00F WCI  16
LEWISTOWN      CLEAR     21   7  55 E3        30.01S
* N BAR RANCH  CLEAR     19   1  45 E7        30.01R WCI  10
* CHINOOK      CLEAR     21   3  45 E6        30.03F WCI  13
* FORT BENTON  CLEAR    N/A N/A N/A SW5       30.02S
* MALTA APT    CLEAR     19   0  43 N/A        N/A
* CHESTER      N/A       33   6  32 SW5        N/A   WCI  28
* DENTON       N/A       22   8  55 S10        N/A   WCI  11
* GEYSER       N/A       25   6  44 SW14       N/A   WCI  13
* JUDITH GAP   N/A       23   3  42 SW1G7      N/A
* LOMA         N/A       34  13  42 SW6G12     N/A   WCI  29
$$

MTZ017>020-022>027-061-062-050300-
NORTHEAST MONTANA
CITY           SKY/WX    TMP DP  RH WIND       PRES   REMARKS
GLASGOW        PTCLDY    10   0  64 SE10      30.13F WCI  -4
GLENDIVE       CLEAR     10  -8  43 CALM      30.18F
JORDAN         PTCLDY    18   1  47 SE5       30.12F WCI  11
SIDNEY         CLEAR      9  -6  50 CALM      30.25S
WOLF POINT     PTCLDY    12   0  58 CALM      30.20F
* BEAVER HILL  N/A       10  -7  46 SW3        N/A
* CIRCLE       N/A       13   1  58 N/A        N/A
* LINDSAY DVD  N/A        4  -6  63 N/A        N/A
* NAVAJO       N/A       -1  -9  68 S4         N/A
* PLENTYWOOD A CLEAR     -2 -11  65 SE6       30.18F WCI -14
* POPLAR APT   CLEAR     10  -6  48 CALM      30.21F
* SACO         N/A       13  -1  53 E7         N/A   WCI   3
* SCOBEY APT   CLEAR      7 -11  43 SW5        N/A   WCI  -2
$$

MTZ028>042-056>058-050300-
SOUTHCENTRAL AND SOUTHEAST MONTANA
CITY           SKY/WX    TMP DP  RH WIND       PRES   REMARKS
BAKER          CLEAR      9  -2  61 SW5       30.17S
BILLINGS       FAIR      25   7  46 SW20      30.06F WCI  11
LIVINGSTON     PTCLDY    27   7  42 W9        30.04F WCI  18
MILES CITY     CLEAR     21  -8  27 N/A       30.16F
* BIG TIMBER A PTCLDY    28   5  37 SW17G22   30.02R WCI  16
* FORSYTH APT  CLEAR     18   1  47 SE6       30.15S WCI  10
* LAUREL APT   CLEAR     25   1  35 S10G21     N/A   WCI  15
* ROUNDUP APT  CLEAR     25   0  33 N/A        N/A
* ALZADA       N/A        9  -4  55 E1         N/A
* HYSHAM       N/A       21   0  40 S4G12      N/A
* REED POINT   N/A       26   4  39 S4G12      N/A
* ROSCOE HILL  N/A       16  -6  37 SE9        N/A   WCI   5
$$

REGIONAL REPORTS...DAKOTAS
CITY           SKY/WX    TMP DP  RH WIND       PRES   REMARKS
WILLISTON      PTCLDY   N/A N/A N/A N/A       30.25F
DICKINSON      CLEAR      0  -9  65 S5        30.19S WCI -11
BEACH          CLEAR      3  -4  72 S5        30.18F WCI  -7
CROSBY         CLEAR     -4 -13  65 S5        30.24F WCI -15
TIOGA          CLEAR    -13 -18  78 S7        30.24F WCI -29
WATFORD CITY   CLEAR      0  -9  65 SE8       30.22F WCI -14
BISMARCK       CLEAR      1  -9  62 NE5       30.35S WCI  -9
GRAND FORKS    PTCLDY    -6 -13  71 NW5       30.38S WCI -18
FARGO          CLEAR      0  -9  65 W9        30.40R WCI -15
BUFFALO SD     PTCLDY    10  -6  48 NW7       30.12R WCI  -1
RAPID CITY     CLEAR      3  -4  72 N7        30.22R WCI  -9
$$

REGIONAL REPORTS...WYOMING/IDAHO/WASHINGTON
CITY           SKY/WX    TMP DP  RH WIND       PRES   REMARKS
GILLETTE       CLEAR      1  -2  87 SW5       30.12R WCI  -9
SHERIDAN       PTCLDY     5  -2  72 SW5       30.12R WCI  -5
CODY           PTCLDY    18   7  62 E9        30.08R WCI   7
YELLOWSTONE LA PTCLDY    12  -2  53 VRB5      30.11R WCI   4
SALMON         CLEAR     28   9  45 S3        30.18R
MULLAN PASS    PTCLDY    21   7  55 NW8       30.12S WCI  11
SAND POINT     PTCLDY    37  12  36 S5        30.22S WCI  33
SPOKANE        PTCLDY    39  18  43 S6        30.22S WCI  35
$$

REGIONAL REPORTS...ALBERTA
CITY           SKY/WX    TMP DP  RH WIND       PRES   REMARKS
CALGARY        FAIR      25  10  53 SE5       29.88R WCI  19
LETHBRIDGE     PTCLDY    34  14  44 W24G31    29.91S WCI  22
MEDICINE HAT   FAIR      23   9  55 SW6       29.95F WCI  16
EDMONTON       FAIR      18   7  62 S5        29.90R WCI  11
WATERTON GATE  N/A       30  12  47 SW30G44    N/A   WCI  15
CARDSTON       N/A       34  16  48 W12        N/A   WCI  25
MILK RIVER     N/A       23  16  74 N1         N/A
$$

REGIONAL REPORTS...SASKATCHEWAN
CITY           SKY/WX    TMP DP  RH WIND       PRES   REMARKS
SWIFT CURRENT  PTCLDY     3  -4  72 S12       30.01F WCI -14
REGINA         N/A       -9 -17  67 SE13      30.19F WCI -30
ASSINIBOIA     N/A        0  -9  65 SE8        N/A   WCI -14
CORONACH       N/A        1  -8  65 SE6        N/A   WCI -11

$$



USA.gov is the U.S. government's official web portal to all federal, state and local government web resources and services.